TimeEST,TemperatureF,Dew PointF,Humidity,Sea Level PressureIn,VisibilityMPH,Wind Direction,Wind SpeedMPH,Gust SpeedMPH,PrecipitationIn,Events,Conditions,WindDirDegrees,DateUTC
12:00 AM,19.4,17.6,93,29.68,0.5,North,23.0,-,0.01,Fog-Snow,Snow,360,2013-02-09 05:00:00
12:51 AM,19.4,17.6,93,29.69,0.5,North,25.3,-,N/A,Fog-Snow,Snow,350,2013-02-09 05:51:00
1:51 AM,19.9,17.1,89,29.71,0.5,NNW,20.7,-,0.10,Fog-Snow,Snow,340,2013-02-09 06:51:00
2:36 AM,21.2,17.6,86,29.70,0.2,NNW,23.0,-,0.07,Fog-Snow,Heavy Snow,340,2013-02-09 07:36:00
2:46 AM,21.2,19.4,93,29.70,0.2,NNW,20.7,-,0.09,Fog-Snow,Snow,340,2013-02-09 07:46:00
2:51 AM,21.9,19.0,89,29.70,0.2,NNW,20.7,-,0.10,Fog-Snow,Snow,340,2013-02-09 07:51:00
3:25 AM,23.0,19.4,86,29.70,0.8,NNW,16.1,25.3,0.06,Snow,Light Snow,340,2013-02-09 08:25:00
3:51 AM,23.0,19.9,88,29.71,0.8,NNW,16.1,21.9,0.07,Snow,Light Snow,340,2013-02-09 08:51:00
4:31 AM,24.8,21.2,86,29.71,0.8,NNW,10.4,21.9,0.07,Snow,Light Snow,330,2013-02-09 09:31:00
4:49 AM,24.8,21.2,86,29.72,1.0,NNW,9.2,-,0.10,Snow,Light Snow,340,2013-02-09 09:49:00
4:51 AM,24.1,21.0,88,29.73,1.0,North,10.4,-,0.10,Snow,Light Snow,350,2013-02-09 09:51:00
5:51 AM,24.1,21.0,88,29.75,1.0,North,8.1,-,0.05,Snow,Light Snow,350,2013-02-09 10:51:00
6:47 AM,21.2,19.4,93,29.77,1.0,NNW,10.4,-,0.03,Snow,Light Snow,330,2013-02-09 11:47:00
6:51 AM,21.9,19.0,89,29.78,1.0,NNW,9.2,-,0.30,Snow,Light Snow,330,2013-02-09 11:51:00
7:51 AM,21.9,15.1,75,29.81,1.0,NNW,17.3,25.3,0.38,Snow,Light Snow,330,2013-02-09 12:51:00
8:18 AM,21.2,12.2,68,29.81,3.0,NNW,16.1,31.1,0.37,Snow,Light Snow,330,2013-02-09 13:18:00
8:39 AM,21.2,10.4,63,29.82,9.0,NNW,16.1,29.9,0.57,Snow,Light Snow,330,2013-02-09 13:39:00
8:51 AM,21.9,10.9,63,29.83,9.0,NNW,15.0,24.2,0.59,Snow,Light Snow,330,2013-02-09 13:51:00
9:51 AM,21.9,10.0,60,29.86,9.0,NNW,20.7,28.8,0.17,Snow,Light Snow,340,2013-02-09 14:51:00
10:51 AM,21.9,9.0,58,29.89,7.0,NNW,18.4,28.8,0.41,,Mostly Cloudy,340,2013-02-09 15:51:00
11:51 AM,23.0,8.1,53,29.91,10.0,NNW,21.9,29.9,1.57,,Mostly Cloudy,330,2013-02-09 16:51:00
12:51 PM,23.0,6.1,48,29.93,8.0,NNW,18.4,34.5,0.13,,Mostly Cloudy,330,2013-02-09 17:51:00
1:11 PM,24.8,5.0,43,29.92,10.0,NNW,18.4,32.2,N/A,,Mostly Cloudy,340,2013-02-09 18:11:00
1:51 PM,24.1,3.9,42,29.95,10.0,North,18.4,28.8,0.00,,Mostly Cloudy,350,2013-02-09 18:51:00
2:51 PM,26.1,1.9,35,29.98,10.0,NNW,17.3,35.7,0.00,,Scattered Clouds,330,2013-02-09 19:51:00
3:51 PM,25.0,-0.0,34,30.02,10.0,NNW,21.9,33.4,N/A,,Scattered Clouds,340,2013-02-09 20:51:00
4:51 PM,24.1,-2.0,32,30.06,10.0,NNW,18.4,32.2,N/A,,Partly Cloudy,340,2013-02-09 21:51:00
5:51 PM,21.9,-4.0,32,30.11,10.0,NNW,13.8,-,N/A,,Partly Cloudy,330,2013-02-09 22:51:00
6:51 PM,21.9,-0.9,37,30.15,10.0,NNW,12.7,26.5,N/A,,Clear,340,2013-02-09 23:51:00
7:51 PM,21.0,-0.9,38,30.17,10.0,NNW,15.0,20.7,N/A,,Clear,340,2013-02-10 00:51:00
8:51 PM,19.9,-2.0,38,30.20,10.0,North,9.2,-,N/A,,Clear,350,2013-02-10 01:51:00
9:51 PM,19.9,-4.0,35,30.23,10.0,NNW,12.7,18.4,N/A,,Clear,340,2013-02-10 02:51:00
10:51 PM,17.1,-2.9,41,30.25,10.0,NNW,5.8,-,N/A,,Clear,340,2013-02-10 03:51:00
11:51 PM,14.0,-5.1,43,30.28,10.0,NW,6.9,-,N/A,,Clear,320,2013-02-10 04:51:00